This is the latest recevied weather packets stored in our database for station/object p43g-13. If no packets are shown the sender has not sent any weather packets the latest 10 day(s).
| Time | Temp. | Humidity | Pressure | Rain* | Wind** | Luminosity | Snow |
|---|---|---|---|---|---|---|---|
| 1788048056 | 28.89° C | 83% | 1010.3 hPa | 0 mm | - | 0 W/m² | - |
| 1788047754 | 28.89° C | 84% | 1010.1 hPa | 0 mm | - | 0 W/m² | - |
| 1788047455 | 28.89° C | 84% | 1010.1 hPa | 0 mm | - | 0 W/m² | - |
| 1788047155 | 28.89° C | 84% | 1010.2 hPa | 0 mm | - | 0 W/m² | - |
| 1788046855 | 28.89° C | 84% | 1009.7 hPa | 0 mm | - | 0 W/m² | - |
| 1788046555 | 28.89° C | 84% | 1009.3 hPa | 0 mm | - | 0 W/m² | - |
| 1788046255 | 28.89° C | 85% | 1009.5 hPa | 0 mm | - | 0 W/m² | - |
| 1788045955 | 28.89° C | 85% | 1009.2 hPa | 0 mm | - | 0 W/m² | - |
| 1788045655 | 28.89° C | 85% | 1009.2 hPa | 0 mm | - | 0 W/m² | - |
| 1788045355 | 28.89° C | 85% | 1009.2 hPa | 0 mm | - | 0 W/m² | - |
| 1788045055 | 28.89° C | 84% | 1009.3 hPa | 0 mm | - | 0 W/m² | - |
| 1788044755 | 29.44° C | 84% | 1009.1 hPa | 0 mm | - | 0 W/m² | - |
| 1788044455 | 29.44° C | 84% | 1009.1 hPa | 0 mm | - | 0 W/m² | - |
| 1788044155 | 29.44° C | 83% | 1009 hPa | 0 mm | - | 2 W/m² | - |
| 1788043856 | 29.44° C | 82% | 1008.7 hPa | 0 mm | - | 5 W/m² | - |
| 1788043555 | 29.44° C | 82% | 1008.7 hPa | 0 mm | - | 9 W/m² | - |
| 1788043255 | 29.44° C | 82% | 1008.8 hPa | 0 mm | - | 13 W/m² | - |
| 1788042955 | 29.44° C | 82% | 1008.9 hPa | 0 mm | - | 18 W/m² | - |
| 1788042655 | 29.44° C | 81% | 1008.8 hPa | 0 mm | - | 23 W/m² | - |
| 1788042355 | 29.44° C | 81% | 1008.6 hPa | 0 mm | - | 28 W/m² | - |
| 1788042055 | 30° C | 81% | 1008.7 hPa | 0 mm | - | 33 W/m² | - |
| 1788041755 | 30° C | 81% | 1008.9 hPa | 0 mm | - | 40 W/m² | - |
| 1788041455 | 30° C | 81% | 1008.9 hPa | 0 mm | - | 48 W/m² | - |
| 1788041155 | 30° C | 82% | 1008.7 hPa | 0 mm | - | 58 W/m² | - |
| 1788040855 | 30° C | 82% | 1008.6 hPa | 0 mm | - | 69 W/m² | - |
* Rain latest hour (hover to see other rain measurements)
** Current wind speed in m/s (hover to see current wind gust speed)